Temp
-12 -12 -12 -12 -13 -12 -12 -12 -12 -12 -12 -12 -11 -11 -11 -11 -11 -11 -10 -10 -11 -11 -11 -11 -12 -12 -12 -12 -12 -12 -12 -12 -12 -12 -12 -12 -12 -12 -12 -12 -12 -12
-12 -12 -12 -12 -12 -12 -12 -12 -12 -12 -12 -12 -12 -12 -12 -11 -11 -11 -10 -10 -11 -11 -11 -11 -12 -12 -12 -12 -12 -12 -12 -12 -12 -12 -12 -12 -12 -12 -12 -12 -12 -12
-12 -12 -12 -12 -12 -12 -12 -12 -12 -12 -12 -12 -12 -12 -12 -12 -12 -11 -11 -11 -11 -11 -11 -11 -12 -12 -12 -12 -12 -12 -13 -12 -12 -12 -12 -12 -12 -12 -12 -12 -12 -12
-12 -12 -12 -12 -13 -12 -12 -12 -12 -12 -12 -12 -12 -12 -12 -12 -12 -12 -11 -11 -11 -11 -11 -11 -12 -12 -12 -12 -12 -12 -13 -13 -12 -12 -12 -12 -12 -12 -12 -12 -12 -12
-12 -12 -13 -13 -13 -13 -12 -12 -12 -13 -12 -12 -12 -12 -12 -12 -12 -12 -11 -11 -11 -12 -12 -12 -12 -12 -12 -12 -12 -12 -13 -13 -13 -12 -12 -12 -12 -12 -12 -12 -12 -12
-12 -13 -13 -13 -13 -13 -12 -11 -12 -13 -13 -12 -12 -12 -12 -12 -12 -12 -12 -11 -11 -12 -12 -12 -12 -12 -12 -12 -12 -12 -12 -13 -13 -12 -12 -12 -12 -12 -12 -12 -12 -12
-12 -13 -13 -13 -13 -13 -12 -12 -12 -12 -13 -12 -12 -12 -12 -12 -12 -12 -12 -12 -12 -12 -12 -12 -12 -12 -12 -12 -12 -12 -12 -13 -13 -13 -12 -12 -12 -12 -12 -12 -12 -12
-13 -13 -13 -13 -13 -13 -12 -12 -12 -12 -12 -12 -12 -12 -12 -12 -12 -12 -12 -12 -12 -12 -12 -12 -12 -12 -12 -12 -12 -12 -12 -13 -13 -13 -13 -12 -12 -12 -12 -12 -12 -12
-13 -13 -13 -13 -13 -13 -12 -12 -12 -12 -13 -12 -12 -12 -12 -12 -12 -12 -12 -13 -13 -13 -13 -12 -12 -12 -12 -12 -12 -12 -12 -12 -13 -13 -13 -12 -12 -12 -12 -12 -12 -12
-13 -13 -13 -13 -12 -12 -13 -13 -13 -13 -12 -12 -12 -12 -12 -12 -12 -12 -13 -13 -13 -13 -13 -13 -12 -12 -12 -12 -12 -12 -13 -13 -13 -13 -13 -13 -12 -12 -12 -12 -12 -12
-13 -13 -13 -13 -12 -12 -12 -13 -13 -13 -13 -12 -12 -12 -12 -12 -12 -13 -13 -13 -13 -13 -13 -13 -13 -12 -12 -12 -12 -12 -13 -13 -13 -13 -13 -13 -12 -12 -12 -12 -12 -13
-13 -13 -13 -12 -12 -12 -12 -13 -13 -13 -13 -12 -12 -12 -12 -12 -12 -13 -13 -14 -13 -13 -13 -13 -13 -12 -12 -12 -12 -12 -13 -13 -13 -13 -13 -13 -13 -12 -12 -12 -13 -13
-13 -12 -12 -12 -12 -12 -12 -13 -13 -13 -12 -12 -12 -12 -12 -12 -12 -12 -13 -13 -13 -13 -13 -13 -13 -12 -12 -12 -12 -13 -13 -13 -13 -13 -13 -13 -13 -13 -12 -12 -13 -13
-13 -13 -13 -13 -12 -12 -12 -12 -13 -13 -13 -12 -12 -12 -12 -12 -12 -12 -13 -13 -13 -13 -13 -13 -13 -13 -12 -12 -12 -13 -13 -13 -13 -13 -13 -13 -13 -13 -13 -13 -13 -13
-13 -13 -13 -13 -13 -12 -12 -12 -12 -12 -12 -12 -12 -12 -12 -12 -12 -12 -13 -13 -12 -12 -12 -12 -13 -13 -12 -13 -13 -13 -13 -13 -13 -13 -13 -13 -13 -13 -13 -13 -13 -13
-14 -14 -13 -13 -13 -12 -12 -12 -12 -12 -12 -12 -12 -12 -12 -12 -12 -12 -12 -12 -12 -12 -12 -12 -12 -13 -13 -13 -13 -13 -13 -13 -13 -13 -13 -13 -13 -13 -13 -13 -13 -13
-14 -14 -14 -13 -13 -13 -12 -12 -12 -13 -13 -12 -12 -12 -12 -12 -12 -12 -12 -12 -12 -12 -12 -12 -12 -13 -13 -13 -13 -13 -13 -13 -13 -13 -13 -13 -13 -13 -13 -13 -13 -13
-14 -14 -14 -13 -13 -13 -12 -12 -12 -13 -13 -13 -12 -12 -12 -12 -12 -12 -12 -12 -12 -12 -12 -12 -12 -13 -13 -13 -13 -13 -13 -13 -13 -13 -13 -14 -13 -13 -13 -13 -13 -13
-14 -14 -14 -13 -13 -13 -13 -12 -13 -13 -13 -13 -12 -12 -12 -12 -12 -12 -12 -13 -12 -12 -12 -12 -12 -13 -13 -13 -13 -13 -13 -13 -13 -13 -13 -13 -13 -13 -13 -13 -13 -13
-14 -14 -14 -13 -13 -13 -13 -13 -13 -12 -12 -13 -12 -12 -12 -12 -12 -12 -12 -12 -13 -13 -12 -12 -13 -13 -13 -13 -13 -13 -13 -13 -13 -13 -13 -13 -13 -13 -13 -13 -14 -13
-14 -13 -13 -13 -13 -13 -13 -13 -13 -12 -12 -12 -12 -12 -12 -12 -12 -12 -12 -12 -13 -13 -13 -12 -13 -13 -13 -13 -13 -13 -13 -13 -13 -13 -13 -13 -13 -13 -13 -13 -14 -14
-13 -13 -13 -13 -13 -13 -13 -13 -13 -12 -12 -12 -12 -12 -12 -12 -12 -12 -12 -12 -12 -13 -13 -13 -13 -13 -13 -13 -13 -13 -13 -13 -13 -13 -13 -13 -13 -13 -13 -13 -14 -14
-13 -13 -13 -13 -13 -13 -13 -12 -12 -12 -12 -12 -12 -12 -12 -12 -12 -12 -12 -12 -12 -12 -13 -13 -13 -13 -13 -13 -13 -13 -13 -13 -13 -13 -13 -13 -13 -13 -13 -13 -14 -14
-14 -13 -13 -13 -13 -13 -13 -12 -12 -12 -12 -12 -12 -12 -12 -11 -12 -12 -12 -12 -12 -12 -13 -13 -13 -13 -13 -13 -13 -13 -13 -13 -13 -13 -13 -13 -13 -13 -13 -13 -13 -14
-15 -13 -13 -13 -13 -13 -13 -13 -13 -12 -12 -12 -12 -12 -12 -12 -12 -12 -12 -12 -12 -12 -13 -13 -13 -13 -13 -14 -14 -14 -14 -13 -13 -13 -13 -13 -13 -13 -13 -13 -14 -14
-15 -14 -13 -13 -13 -13 -13 -13 -13 -12 -12 -12 -12 -12 -12 -12 -12 -12 -12 -13 -13 -13 -13 -13 -13 -13 -13 -14 -14 -14 -14 -14 -13 -13 -13 -13 -13 -13 -13 -13 -14 -14
Height
5806 5808 5811 5814 5817 5821 5823 5825 5828 5831 5834 5836 5837 5837 5837 5839 5839 5839 5840 5840 5840 5841 5841 5841 5841 5840 5840 5839 5838 5837 5835 5834 5833 5832 5831 5830 5830 5829 5828 5827 5826 5825
5800 5803 5805 5809 5813 5816 5819 5821 5824 5827 5829 5831 5833 5833 5834 5835 5836 5836 5837 5837 5837 5838 5839 5839 5838 5838 5838 5837 5837 5835 5834 5832 5831 5830 5829 5828 5828 5827 5826 5825 5824 5823
5796 5798 5801 5804 5808 5812 5814 5817 5819 5822 5824 5827 5828 5829 5830 5831 5832 5833 5833 5834 5834 5835 5836 5836 5836 5835 5835 5835 5835 5833 5832 5830 5829 5828 5827 5826 5826 5825 5824 5823 5822 5821
5791 5794 5797 5801 5804 5808 5809 5811 5814 5817 5820 5822 5824 5825 5826 5828 5829 5829 5830 5831 5831 5832 5833 5833 5833 5833 5832 5832 5832 5831 5830 5828 5827 5826 5825 5824 5824 5823 5822 5821 5820 5819
5787 5789 5793 5796 5800 5802 5804 5807 5809 5812 5815 5817 5819 5820 5822 5824 5825 5826 5827 5827 5828 5829 5830 5830 5830 5830 5830 5830 5830 5829 5828 5826 5825 5824 5823 5822 5822 5821 5820 5819 5818 5817
5781 5784 5787 5791 5794 5797 5799 5802 5805 5807 5810 5812 5814 5816 5818 5819 5820 5822 5823 5824 5825 5826 5827 5827 5826 5826 5827 5827 5827 5826 5825 5824 5823 5822 5821 5820 5819 5818 5818 5817 5816 5815
5775 5778 5781 5784 5788 5791 5793 5796 5799 5801 5804 5807 5809 5812 5813 5814 5816 5818 5819 5820 5821 5822 5823 5824 5823 5823 5824 5824 5824 5824 5823 5822 5821 5820 5819 5818 5817 5816 5815 5815 5814 5813
5769 5772 5775 5779 5781 5784 5787 5790 5793 5796 5799 5802 5804 5807 5809 5810 5812 5813 5815 5816 5817 5818 5819 5820 5820 5820 5820 5821 5821 5821 5820 5819 5818 5817 5816 5815 5814 5813 5812 5812 5811 5810
5762 5765 5769 5772 5775 5778 5781 5784 5787 5791 5794 5796 5799 5802 5803 5805 5807 5809 5810 5812 5812 5813 5814 5816 5817 5816 5817 5818 5818 5818 5817 5817 5815 5814 5813 5813 5812 5810 5810 5809 5809 5807
5755 5759 5763 5766 5770 5773 5776 5779 5782 5785 5788 5791 5794 5796 5798 5800 5802 5804 5805 5807 5808 5808 5810 5812 5813 5813 5813 5814 5815 5814 5814 5814 5813 5811 5811 5810 5809 5808 5807 5806 5806 5805
5749 5753 5757 5761 5765 5768 5771 5774 5777 5780 5783 5786 5788 5790 5792 5795 5797 5799 5800 5802 5803 5804 5805 5807 5809 5809 5810 5810 5811 5811 5811 5810 5810 5808 5807 5807 5806 5805 5804 5803 5803 5802
5743 5747 5751 5756 5760 5764 5767 5770 5773 5775 5778 5780 5783 5785 5787 5789 5791 5793 5795 5797 5799 5799 5800 5802 5804 5805 5806 5806 5807 5807 5807 5807 5806 5805 5804 5804 5803 5802 5801 5801 5800 5799
5737 5741 5746 5749 5754 5758 5762 5765 5769 5771 5773 5775 5778 5780 5782 5784 5786 5788 5790 5792 5793 5794 5796 5798 5799 5801 5802 5803 5803 5804 5804 5803 5803 5802 5801 5800 5799 5799 5798 5798 5797 5796
5731 5736 5740 5743 5748 5751 5754 5758 5762 5765 5767 5770 5772 5774 5776 5779 5781 5783 5785 5786 5787 5789 5791 5793 5794 5796 5798 5799 5799 5800 5800 5800 5800 5799 5798 5797 5796 5795 5795 5794 5794 5793
5725 5729 5733 5737 5741 5744 5748 5751 5754 5758 5761 5764 5766 5769 5771 5773 5776 5777 5779 5780 5782 5784 5786 5787 5789 5791 5793 5795 5795 5796 5797 5796 5796 5796 5795 5793 5793 5792 5791 5791 5791 5790
5717 5722 5726 5730 5734 5738 5741 5744 5748 5751 5754 5757 5760 5763 5765 5767 5769 5771 5773 5775 5777 5779 5780 5782 5784 5787 5789 5790 5791 5792 5792 5792 5792 5792 5791 5790 5789 5789 5788 5787 5787 5786
5710 5715 5719 5723 5727 5731 5734 5737 5741 5744 5748 5751 5754 5756 5758 5760 5763 5765 5768 5770 5772 5774 5775 5777 5780 5782 5784 5785 5786 5787 5788 5788 5788 5788 5787 5786 5786 5785 5785 5784 5783 5783
5703 5708 5712 5717 5721 5724 5727 5731 5734 5737 5741 5744 5747 5749 5752 5754 5757 5760 5762 5765 5767 5769 5771 5773 5776 5778 5779 5780 5782 5783 5783 5784 5784 5784 5783 5782 5782 5782 5781 5780 5779 5779
5696 5700 5704 5709 5714 5717 5720 5723 5726 5730 5733 5737 5740 5743 5746 5748 5751 5754 5757 5759 5761 5763 5766 5769 5771 5772 5773 5775 5777 5778 5779 5779 5779 5779 5779 5779 5778 5778 5778 5777 5776 5775
5688 5692 5697 5702 5707 5710 5713 5716 5719 5723 5727 5730 5734 5737 5739 5742 5745 5748 5751 5753 5755 5757 5761 5763 5766 5767 5768 5770 5772 5773 5774 5774 5774 5774 5774 5774 5774 5774 5775 5774 5773 5771
5681 5685 5690 5695 5699 5703 5706 5709 5712 5716 5720 5724 5727 5730 5733 5736 5739 5742 5745 5747 5749 5752 5754 5757 5760 5762 5763 5765 5767 5769 5769 5769 5769 5770 5770 5770 5770 5770 5771 5771 5770 5768
5675 5678 5682 5687 5692 5695 5699 5702 5705 5709 5712 5716 5720 5723 5726 5729 5732 5735 5738 5740 5743 5745 5747 5750 5754 5756 5758 5760 5762 5763 5763 5764 5764 5765 5765 5766 5766 5766 5767 5767 5766 5765
5667 5671 5675 5679 5683 5686 5691 5695 5699 5702 5705 5709 5712 5716 5719 5722 5725 5728 5731 5734 5736 5738 5741 5744 5748 5751 5752 5755 5757 5757 5758 5758 5759 5760 5761 5761 5761 5762 5762 5763 5762 5761
5659 5663 5667 5672 5674 5678 5683 5688 5692 5695 5699 5702 5706 5709 5712 5715 5718 5721 5724 5727 5729 5732 5735 5738 5742 5745 5747 5749 5750 5752 5752 5753 5754 5755 5755 5756 5757 5757 5758 5758 5758 5757
5650 5654 5660 5664 5666 5671 5675 5680 5684 5688 5691 5695 5698 5701 5704 5708 5711 5713 5716 5719 5722 5725 5728 5731 5735 5738 5740 5742 5744 5746 5746 5747 5748 5749 5750 5751 5752 5752 5753 5754 5753 5753
5641 5646 5651 5656 5660 5664 5668 5671 5676 5680 5683 5686 5690 5693 5696 5699 5701 5704 5707 5711 5715 5718 5721 5724 5727 5731 5734 5736 5738 5740 5741 5741 5742 5744 5745 5746 5747 5747 5748 5749 5749 5748
Wind_Speed
42 43 44 43 45 44 41 42 41 38 35 32 30 28 26 25 25 25 25 22 21 21 20 20 19 18 18 19 21 22 23 22 22 21 22 23 23 23 23 23 23 22
40 43 44 43 44 43 41 42 42 39 36 33 31 30 30 29 28 28 27 24 23 23 22 21 20 19 20 20 20 21 23 23 22 22 22 23 23 22 23 24 24 23
42 43 45 45 43 41 40 42 42 42 39 36 33 31 31 30 30 30 29 26 25 24 23 23 21 21 21 21 21 21 23 23 23 22 22 23 23 23 23 23 24 24
43 44 46 46 44 42 41 41 42 43 42 38 33 31 31 32 31 31 29 27 26 25 25 25 23 22 23 23 22 21 22 23 23 23 23 24 24 23 23 24 24 24
42 44 48 50 49 49 47 43 41 44 45 41 36 33 33 33 32 31 31 29 27 26 26 27 25 22 23 24 23 22 22 23 23 23 24 25 25 25 24 24 24 24
45 44 47 51 52 53 53 47 42 44 48 46 40 36 34 34 33 33 32 31 29 28 28 28 26 24 24 25 24 23 22 23 22 23 24 25 26 26 25 24 24 25
48 46 46 48 50 52 52 49 45 44 45 46 41 38 36 35 34 34 33 33 32 30 29 29 28 25 26 26 25 24 23 23 23 23 24 25 26 26 26 25 25 25
49 49 47 46 47 49 49 49 47 44 43 42 39 38 37 37 36 35 35 35 34 32 31 30 29 27 27 27 26 25 24 24 24 23 24 25 26 27 27 25 25 25
50 51 49 47 45 45 46 47 46 44 42 40 38 39 39 38 37 37 37 36 35 34 32 31 30 29 28 28 27 26 25 24 25 25 25 25 26 27 27 25 25 25
53 52 52 50 47 45 44 45 45 43 42 40 40 41 41 39 39 39 39 38 36 35 35 33 31 30 30 30 28 27 26 25 25 26 26 25 26 27 26 25 24 26
55 54 53 52 49 47 44 43 44 44 43 41 41 41 40 40 40 39 40 39 37 37 37 36 33 31 31 31 30 28 27 26 26 27 27 26 26 26 26 24 24 25
57 56 54 52 50 48 44 43 44 45 45 44 42 40 40 40 40 39 39 39 39 39 39 39 36 33 32 32 31 29 28 27 27 28 28 28 26 26 25 24 23 24
59 57 56 54 51 48 47 46 46 46 47 46 43 41 40 40 40 39 38 38 40 40 40 40 39 36 34 34 33 30 29 29 28 28 29 29 27 26 25 24 23 24
59 59 57 55 52 51 50 50 49 49 49 49 46 43 42 41 41 39 38 38 39 40 40 41 40 38 36 35 34 31 30 30 29 28 29 29 28 27 26 25 24 24
61 60 59 57 55 54 54 52 51 51 51 49 48 46 44 43 42 40 39 39 39 39 40 40 41 40 38 36 35 33 31 31 30 29 29 30 29 27 27 26 25 24
61 62 61 59 57 56 56 53 51 51 51 49 46 45 45 44 43 42 42 40 39 39 40 40 41 40 39 38 36 33 32 32 31 29 29 30 29 28 28 27 26 25
58 59 59 57 56 56 57 54 51 52 53 51 46 44 45 45 44 45 44 42 40 40 40 40 40 40 41 41 38 34 34 33 32 30 29 30 30 29 28 28 27 26
60 59 59 57 55 56 58 56 55 55 56 55 50 45 45 47 46 46 47 44 43 42 42 41 41 41 43 44 40 36 35 35 33 31 30 30 31 30 29 28 28 27
65 64 63 61 59 59 59 60 59 58 59 60 54 48 47 49 48 48 48 47 46 45 43 42 42 43 45 45 41 38 37 36 34 33 32 30 31 31 29 28 28 28
65 66 66 64 63 62 62 62 62 61 62 62 57 52 51 51 50 49 49 49 50 48 45 44 43 44 47 46 42 40 39 38 36 35 34 32 32 33 30 28 28 29
64 65 65 64 64 64 64 63 63 62 62 61 58 54 53 52 51 50 49 50 51 50 49 46 44 45 48 46 43 41 41 40 38 37 36 33 33 33 31 28 27 28
62 63 64 64 65 66 67 65 64 63 62 61 59 58 56 54 53 52 50 49 50 51 52 50 47 47 48 46 44 43 42 41 39 38 38 35 33 34 32 28 27 28
62 62 63 65 66 68 69 68 67 67 66 64 62 61 59 56 54 53 52 50 50 51 53 52 49 48 48 47 45 44 44 43 41 40 39 36 34 35 32 28 27 27
61 62 62 64 66 68 69 69 69 69 68 67 65 63 60 57 55 54 53 52 52 52 52 53 51 49 48 47 46 45 45 44 43 42 41 37 35 35 33 29 27 27
61 63 63 62 64 66 67 67 68 69 68 67 66 63 61 59 56 56 55 54 52 52 53 54 53 51 49 48 47 47 46 46 45 44 42 39 35 35 33 30 27 27
58 62 63 63 62 63 65 65 66 67 68 67 66 63 62 61 60 59 59 58 56 54 54 56 55 53 50 49 49 49 49 49 48 45 43 39 36 35 34 30 27 27
Wind_Direction
240 239 242 239 236 237 239 241 239 237 239 244 248 251 259 271 278 280 281 275 267 268 274 280 286 293 300 309 317 321 322 319 315 312 313 315 315 317 319 319 316 312
237 237 237 230 230 235 238 240 239 236 237 240 244 251 261 270 273 275 275 271 265 265 270 276 283 289 294 302 313 320 321 319 314 311 310 312 314 316 317 318 316 313
236 237 233 225 229 236 238 239 237 235 235 235 242 254 264 269 270 271 270 265 261 262 267 273 279 286 291 297 307 317 321 318 313 309 308 309 313 314 314 315 316 314
237 235 231 226 232 239 240 239 237 235 234 233 243 258 264 265 267 268 266 262 260 260 264 270 275 283 288 293 302 313 319 318 313 308 306 306 310 313 312 313 314 314
237 233 230 231 238 243 244 242 239 237 235 234 246 258 260 261 264 264 262 261 260 258 261 267 272 279 285 290 298 308 316 318 312 307 305 305 307 310 310 310 312 314
236 235 233 235 240 243 244 242 238 237 236 238 247 255 256 257 260 260 261 262 262 258 258 264 269 275 281 286 294 302 311 316 313 306 304 303 304 306 308 308 309 311
234 237 236 236 238 240 242 241 238 236 235 238 245 250 251 253 255 258 261 262 262 257 255 260 267 272 277 283 290 298 306 313 313 307 303 302 302 303 305 305 306 308
235 236 236 234 235 237 240 240 239 236 235 238 242 244 246 249 252 255 258 260 260 257 254 256 262 268 273 279 286 293 301 308 311 309 304 302 301 301 302 303 304 305
234 233 233 233 232 234 236 238 237 235 235 237 239 240 243 246 249 251 253 256 260 259 254 254 258 264 269 275 282 289 296 303 308 308 305 303 301 299 300 301 302 303
231 231 232 232 232 233 235 237 238 237 237 237 236 238 242 245 247 248 249 253 260 261 257 254 256 261 266 271 278 285 291 298 305 306 305 305 302 299 298 300 301 302
231 232 233 234 235 236 236 236 239 241 241 239 237 239 242 246 248 247 248 253 258 259 258 256 254 258 264 269 275 281 287 294 300 304 304 305 302 298 298 299 300 300
232 233 235 236 237 238 237 236 239 242 243 241 240 240 244 247 250 250 250 253 255 254 255 255 255 256 261 267 272 278 283 289 296 301 302 303 302 299 297 298 298 298
233 235 236 238 239 238 238 238 238 241 243 243 242 242 245 248 250 251 250 250 251 251 252 253 254 255 259 264 269 275 280 286 291 297 300 301 301 298 296 296 296 296
235 236 237 238 239 239 240 241 241 239 239 242 243 243 245 246 247 248 248 248 249 249 250 251 253 255 258 262 267 272 277 281 287 294 298 299 300 298 296 295 294 294
235 235 236 237 238 239 240 243 245 240 237 239 241 243 245 246 247 248 248 248 248 248 248 250 253 255 259 261 264 269 273 277 284 291 295 296 298 297 295 294 293 292
232 232 234 235 236 238 239 241 243 241 238 238 241 244 246 246 247 249 249 248 247 246 247 249 252 256 259 261 262 266 270 274 281 287 291 293 295 295 295 294 292 291
228 229 231 233 234 236 237 238 239 239 239 240 243 246 246 245 247 248 249 249 247 246 247 249 252 255 258 261 261 263 267 272 278 284 286 289 292 293 293 293 291 291
229 229 230 231 233 236 238 239 238 238 238 239 245 250 248 245 246 246 248 250 248 247 248 251 253 254 256 259 260 262 265 269 275 281 283 285 288 290 291 291 290 290
231 232 232 233 233 234 237 239 238 238 236 237 244 252 250 247 245 244 245 249 249 249 250 251 253 254 255 258 260 261 264 267 274 279 281 283 285 286 288 289 289 289
230 231 231 232 233 233 235 237 237 237 236 237 244 250 249 247 246 244 243 245 249 251 252 252 253 253 254 257 259 260 262 266 271 276 279 282 283 283 285 287 287 288
228 230 231 230 231 232 233 236 237 236 236 238 243 247 247 246 246 245 244 244 246 250 252 253 254 254 253 255 257 259 260 264 269 274 278 280 281 281 281 283 284 286
227 230 231 230 230 231 231 234 236 237 238 241 244 245 245 245 245 244 245 246 246 248 250 251 253 254 252 253 256 257 257 261 267 272 276 278 279 278 279 280 281 282
226 228 230 229 230 231 232 232 234 237 239 241 243 243 243 244 244 244 246 248 248 248 249 250 252 254 253 252 254 255 256 260 266 270 273 275 276 276 277 278 278 279
228 227 228 229 230 231 232 233 233 236 238 239 241 242 243 243 243 244 246 248 248 248 249 250 250 252 252 251 252 253 255 259 264 268 271 273 273 274 274 275 276 278
229 228 227 228 230 231 232 233 233 234 236 238 239 241 243 243 243 243 244 246 246 247 249 249 249 250 250 249 249 252 255 259 263 266 269 271 271 272 273 274 275 275
229 231 229 227 229 231 231 232 234 235 235 236 238 239 241 242 242 242 242 243 243 245 248 248 247 248 249 248 248 250 254 258 261 265 268 269 269 270 271 273 273 273